Location: Kirkcaldy
(50.3333°N, 113.2333°W)
Time: 08:20:57
(UTC+00:00)

PRISM - Visible Passes

Search period start: 03 December 2023 00:00
Search period end: 13 December 2023 00:00
Orbit: 523 x 542 km, 98.2° (Epoch: 02 December)

Date Brightness Start Highest point End Pass type
(mag) Time Alt. Az. Time Alt. Az. Time Alt. Az.
04 Dec ? 14:36:19 10° NE 14:39:11 20° E 14:42:01 10° SE visible
05 Dec ? 14:27:01 10° NE 14:29:24 16° E 14:31:47 10° SE visible
06 Dec ? 14:17:55 10° ENE 14:19:35 12° E 14:21:15 10° ESE visible
